Location: *
(33.3200°N, 8.3381°W)
Time: 16:57:29
(UTC+00:00)

Cosmos 2369 Rocket - Pass Details

Date: 09 April 2020
Orbit: 829 x 852 km, 71.0° (Epoch: 26 May)

Event Time Altitude Azimuth Distance (km) Brightness Sun altitude
Rises 20:29:25 0° 324° (NW) 3,407 6.4 -18.7°
Reaches altitude 10° 20:32:16 10° 311° (NW) 2,464 5.7 -19.2°
Maximum altitude 20:36:45 25° 259° (WSW) 1,643 4.3 -20.1°
Drops below altitude 10° 20:41:12 10° 206° (SSW) 2,440 4.6 -20.9°
Sets 20:44:02 0° 193° (SSW) 3,366 5.2 -21.5°
